Location: Beemte
(52.2555°N, 5.9895°E)
Time: 12:28:52
(UTC+00:00)

Okean 1 - Pass Details

Date: 15 May 2026
Orbit: 458 x 474 km, 82.5° (Epoch: 8 June)

Event Time Altitude Azimuth Distance (km) Brightness Sun altitude
Exits shadow 21:25:43 22° 176° (S) 1,094 4.3 -13.6°
Maximum altitude 21:27:55 67° 98° (E) 519 3.0 -13.7°
Drops below altitude 10° 21:31:31 10° 15° (NNE) 1,656 6.4 -14.0°
Sets 21:33:38 0° 13° (NNE) 2,542 7.5 -14.2°
